Location: Barcelona
(41.3830°N, 2.1830°E)
Time: 15:32:04
(UTC+02:00)

ISS - Pass Details

Date: 16 September 2019
Orbit: 411 x 421 km, 51.6° (Epoch: 18 September)

Event Time Altitude Azimuth Distance (km) Brightness Sun altitude
Exits shadow 06:20:24 21° 214° (SW) 988 -2.3 -14.0°
Drops below altitude 10° 06:22:34 10° 174° (S) 1,483 -1.1 -13.7°
Sets 06:24:57 0° 158° (SSE) 2,343 0.1 -13.2°
